Regional Weather Roundup
Issued by NWS

Home | Current Version | Previous Version | Graphics & Text | Print | Product List | Glossary On
Versions: 1 2 3 4 5 6 7 8 9 10 11 12 13 14 15 16 17 18 19 20 21 22 23 24 25 26 27 28 29 30 31 32 33 34 35 36 37 38 39 40 41 42 43 44 45 46 47 48 49 50
000
ASUS45 KCYS 020010
RWRWY

WYOMING REGIONAL WEATHER ROUNDUP
NATIONAL WEATHER SERVICE CHEYENNE WY
600 PM MDT MON SEP 01 2014

NOTE:  "FAIR" INDICATES FEW OR NO CLOUDS BELOW 12,000 FEET
WITH NO SIGNIFICANT WEATHER AND/OR OBSTRUCTIONS TO VISIBILITY.

WYZ001-020100-
YELLOWSTONE NATIONAL PARK

CITY           SKY/WX    TMP DP  RH WIND       PRES   REMARKS
LK YELLOWSTONE   N/A     54  34  46 VRB3      30.21S
6HR MIN TEMP:  50; 6HR MAX TEMP:  56;

W YELLOWSTONE  NOT AVBL

$$
WYZ002>013-054>058-071-098>099-020100-
NORTHERN WYOMING

CITY           SKY/WX    TMP DP  RH WIND       PRES   REMARKS
JACKSON        MOSUNNY   64  28  25 SW10G18   30.14S
CODY             N/A    N/A N/A N/A MISG        N/A
GREYBULL       SUNNY     72  39  30 NE6       29.95S
6HR MIN TEMP:  64; 6HR MAX TEMP:  72;

WORLAND        SUNNY     72  38  29 NW3       29.96S
6HR MIN TEMP:  64; 6HR MAX TEMP:  73;

SHERIDAN       MOSUNNY   68  42  38 NW8       29.97F
6HR MIN TEMP:  51; 6HR MAX TEMP:  70; 6HR PCP:  0.16;

BUFFALO        SUNNY     63  40  42 CALM      30.04S
6HR MIN TEMP:  49; 6HR MAX TEMP:  63; 6HR PCP:  0.06;

GILLETTE       SUNNY     63  41  44 NW14      30.00R
6HR MIN TEMP:  51; 6HR MAX TEMP:  64; 6HR PCP:  0.02;

HULETT         FAIR      63  41  45 MISG      30.00
NEWCASTLE      FAIR      63  39  42 NW3       30.01

$$
WYZ014>020-022>026-101>103-020100-
CENTRAL WYOMING

CITY           SKY/WX    TMP DP  RH WIND       PRES   REMARKS
BIG PINEY      SUNNY     66  28  24 NW13      30.17R
6HR MIN TEMP:  58; 6HR MAX TEMP:  68;

PINEDALE       CLEAR     63  28  27 W13G23    30.17S
DUBOIS         FAIR      61  25  25 W23G31    30.13R
LANDER         SUNNY     72  23  16 CALM      30.01R
6HR MIN TEMP:  64; 6HR MAX TEMP:  75;

RIVERTON       SUNNY     73  22  14 NW20G25   30.01S
6HR MIN TEMP:  63; 6HR MAX TEMP:  75;

CASPER         MOSUNNY   67  38  34 N13       30.03R
6HR MIN TEMP:  66; 6HR MAX TEMP:  73;

DOUGLAS        MOSUNNY   62  44  51 NE18      30.03R
6HR MIN TEMP:  61; 6HR MAX TEMP:  73; 6HR PCP: TRACE;


$$
WYZ021-027>030-104>119-020100-
SOUTHERN WYOMING

CITY           SKY/WX    TMP DP  RH WIND       PRES   REMARKS
EVANSTON       MOSUNNY   68  33  27 W13G20    30.21R
6HR MIN TEMP:  65; 6HR MAX TEMP:  69;

KEMMERER       CLEAR     64  30  27 W17       30.21R
FORT BRIDGER   FAIR      69  32  25 W20       30.22R
ROCK SPRINGS   SUNNY     69  26  20 W23G30    30.15R
6HR MIN TEMP:  65; 6HR MAX TEMP:  72;

DIXON          MOCLDY    71  35  26 W15G22    30.15S
RAWLINS        SUNNY     68  23  18 W20G32    30.12R
6HR MIN TEMP:  64; 6HR MAX TEMP:  71;

SARATOGA       MOCLDY    66  30  26 W21G26    30.15R
LARAMIE        PTSUNNY   65  28  24 W26G38    30.11S
6HR MIN TEMP:  60; 6HR MAX TEMP:  69;

CHEYENNE       MOSUNNY   72  30  21 W20G35    30.05R
6HR MIN TEMP:  66; 6HR MAX TEMP:  76;

TORRINGTON     MOSUNNY   70  45  40 N16       29.95R
6HR MIN TEMP:  69; 6HR MAX TEMP:  79;

PINE BLUFFS    FAIR      72  36  26 NW13      29.99R

$$



USA.gov is the U.S. government's official web portal to all federal, state and local government web resources and services.